K0JSC-13 Weather Reports


time (UTC)temp
C
wind
direction
speed
KPH
gust
KPH
rain 1hr
cm
rain 24hr
cm
rain mn
cm
humidity
%
barometer
mb
20260905042704 20 244 1.6 6.4 0.00 0.00 0.00 58 987.4
20260905041803 21 245 3.2 8.0 0.00 0.00 0.00 57 987.6
20260905040903 21 311 3.2 4.8 0.00 0.00 0.00 55 987.4
20260905040003 21 317 3.2 4.8 0.00 0.00 0.00 53 987.1
20260905035403 21 338 3.2 6.4 0.00 0.00 0.00 54 987.1
20260905034503 21 332 3.2 6.4 0.00 0.00 0.00 53 987.1
20260905033603 21 350 3.2 9.7 0.00 0.00 0.00 52 987.1
20260905032703 21 337 3.2 6.4 0.00 0.00 0.00 53 987.0
20260905031804 21 328 3.2 6.4 0.00 0.00 0.00 54 987.1
20260905030903 21 330 3.2 6.4 0.00 0.00 0.00 55 987.1
20260905030217 22 319 4.8 11.3 0.00 0.00 0.00 54 987.0
20260905025403 22 303 4.8 11.3 0.00 0.00 0.00 54 987.0
20260905024503 22 322 3.2 6.4 0.00 0.00 0.00 54 986.8
20260905023603 23 325 1.6 4.8 0.00 0.00 0.00 54 986.6
20260905022703 23 328 3.2 9.7 0.00 0.00 0.00 48 986.5
20260905022018 23 340 4.8 9.7 0.00 0.00 0.00 51 986.2
20260905020904 25 351 1.6 8.0 0.00 0.00 0.00 49 986.0
20260905020003 26 204 1.6 4.8 0.00 0.00 0.00 44 985.9
20260905015403 26 188 1.6 4.8 0.00 0.00 0.00 41 985.9
20260905014503 26 85 4.8 8.0 0.00 0.00 0.00 38 985.7
20260905013603 27 80 6.4 11.3 0.00 0.00 0.00 37 985.6
20260905012703 27 79 6.4 12.9 0.00 0.00 0.00 37 985.5
20260905011803 27 72 6.4 11.3 0.00 0.00 0.00 38 985.4
20260905010903 27 61 8.0 16.1 0.00 0.00 0.00 38 985.4
20260905010004 27 44 6.4 16.1 0.00 0.00 0.00 37 985.4
20260905005403 27 51 9.7 20.9 0.00 0.00 0.00 38 985.5
20260905004503 28 30 9.7 22.5 0.00 0.00 0.00 35 985.5
20260905003603 28 3 6.4 14.5 0.00 0.00 0.00 41 985.6
20260905002703 30 138 1.6 6.4 0.00 0.00 0.00 31 985.6
20260905001803 30 131 8.0 16.1 0.00 0.00 0.00 28 985.2
20260905000903 31 122 11.3 20.9 0.00 0.00 0.00 26 984.9
20260905000003 31 105 9.7 16.1 0.00 0.00 0.00 25 984.7
20260904235404 31 115 9.7 17.7 0.00 0.00 0.00 25 984.7
20260904234503 31 134 9.7 16.1 0.00 0.00 0.00 27 984.6
20260904233603 31 143 9.7 16.1 0.00 0.00 0.00 26 984.6
20260904232703 32 134 9.7 17.7 0.00 0.00 0.00 26 984.8
20260904231803 32 135 8.0 16.1 0.00 0.00 0.00 26 984.7
20260904230903 32 137 8.0 16.1 0.00 0.00 0.00 25 984.7
20260904230003 32 146 9.7 19.3 0.00 0.00 0.00 26 984.7
20260904225403 32 142 9.7 19.3 0.00 0.00 0.00 26 984.7
20260904224504 31 161 4.8 9.7 0.00 0.00 0.00 27 984.6
20260904223603 31 158 4.8 12.9 0.00 0.00 0.00 28 984.7
20260904222703 32 153 4.8 11.3 0.00 0.00 0.00 27 984.7
20260904221803 32 146 6.4 12.9 0.00 0.00 0.00 27 984.7
20260904221117 32 147 6.4 12.9 0.00 0.00 0.00 26 984.9
20260904220003 32 143 6.4 14.5 0.00 0.00 0.00 24 984.9
20260904215403 32 149 3.2 8.0 0.00 0.00 0.00 24 984.9
20260904214718 32 138 3.2 8.0 0.00 0.00 0.00 22 984.9
20260904213604 33 126 4.8 11.3 0.00 0.00 0.00 23 984.9
20260904212703 33 136 4.8 11.3 0.00 0.00 0.00 22 985.1
20260904211803 33 135 3.2 6.4 0.00 0.00 0.00 22 985.2
20260904210903 33 125 3.2 8.0 0.00 0.00 0.00 25 985.2
20260904210217 33 134 4.8 11.3 0.00 0.00 0.00 24 985.2
20260904205403 33 136 4.8 9.7 0.00 0.00 0.00 24 985.4
20260904204503 33 140 6.4 11.3 0.00 0.00 0.00 23 985.6
20260904203603 33 115 4.8 9.7 0.00 0.00 0.00 24 985.7
20260904202704 33 95 4.8 11.3 0.00 0.00 0.00 23 985.8
20260904201803 32 152 4.8 11.3 0.00 0.00 0.00 23 985.9
20260904200903 32 210 4.8 12.9 0.00 0.00 0.00 25 986.1
20260904200003 32 199 8.0 17.7 0.00 0.00 0.00 25 986.2
20260904195403 32 187 4.8 11.3 0.00 0.00 0.00 24 986.3
20260904194503 32 131 6.4 14.5 0.00 0.00 0.00 24 986.4
20260904193603 32 90 8.0 16.1 0.00 0.00 0.00 24 986.3
20260904192704 32 85 9.7 19.3 0.00 0.00 0.00 26 986.4
20260904191804 31 90 6.4 12.9 0.00 0.00 0.00 27 986.5
20260904190903 31 59 4.8 12.9 0.00 0.00 0.00 27 986.5
20260904190218 30 336 4.8 12.9 0.00 0.00 0.00 28 986.6
20260904185403 31 319 6.4 14.5 0.00 0.00 0.00 27 986.7
20260904184503 31 303 6.4 14.5 0.00 0.00 0.00 27 986.9
20260904183603 31 312 9.7 19.3 0.00 0.00 0.00 27 986.9
20260904182703 31 304 8.0 19.3 0.00 0.00 0.00 27 987.0
20260904181803 31 297 6.4 16.1 0.00 0.00 0.00 28 987.2
20260904180904 31 308 11.3 25.7 0.00 0.00 0.00 27 987.2
20260904180003 31 318 8.0 19.3 0.00 0.00 0.00 28 987.3
20260904175617 31 326 8.0 19.3 0.00 0.00 0.00 27 987.4
20260904174503 31 307 6.4 19.3 0.00 0.00 0.00 29 987.5
20260904173603 31 299 9.7 19.3 0.00 0.00 0.00 28 987.6
20260904172703 31 303 9.7 17.7 0.00 0.00 0.00 28 987.7
20260904171803 31 297 9.7 20.9 0.00 0.00 0.00 29 987.9
20260904170904 30 305 9.7 20.9 0.00 0.00 0.00 28 987.9
20260904170219 30 312 9.7 20.9 0.00 0.00 0.00 31 987.9
20260904165617 30 307 8.0 20.9 0.00 0.00 0.00 29 987.9
20260904164503 30 311 9.7 22.5 0.00 0.00 0.00 32 988.1
20260904163817 30 311 8.0 17.7 0.00 0.00 0.00 30 988.1
20260904162703 29 306 9.7 19.3 0.00 0.00 0.00 31 988.1
20260904161803 29 302 9.7 19.3 0.00 0.00 0.00 29 988.2
20260904160903 29 301 9.7 22.5 0.00 0.00 0.00 30 988.3
20260904160003 29 308 8.0 19.3 0.00 0.00 0.00 32 988.3
20260904155404 28 305 4.8 16.1 0.00 0.00 0.00 32 988.4
20260904154503 28 294 4.8 12.9 0.00 0.00 0.00 33 988.5
20260904153603 28 320 3.2 6.4 0.00 0.00 0.00 32 988.6
20260904152703 27 308 1.6 4.8 0.00 0.00 0.00 33 988.6
20260904151803 27 289 1.6 6.4 0.00 0.00 0.00 36 988.5
20260904150903 26 289 3.2 6.4 0.00 0.00 0.00 34 988.6
20260904150003 26 293 1.6 4.8 0.00 0.00 0.00 38 988.7
20260904145403 25 296 1.6 6.4 0.00 0.00 0.00 42 988.6
20260904144504 25 309 1.6 6.4 0.00 0.00 0.00 39 988.8
20260904143603 23 323 1.6 4.8 0.00 0.00 0.00 41 988.8
20260904142703 23 323 1.6 4.8 0.00 0.00 0.00 40 988.8
20260904142017 22 323 1.6 4.8 0.00 0.00 0.00 45 988.8
20260904140903 21 323 0.0 4.8 0.00 0.00 0.00 45 988.8
20260904140003 20 323 1.6 4.8 0.00 0.00 0.00 48 988.8
20260904135403 19 323 0.0 3.2 0.00 0.00 0.00 49 988.6
20260904134503 17 323 1.6 3.2 0.00 0.00 0.00 52 988.5
20260904133604 17 323 1.6 4.8 0.00 0.00 0.00 54 988.5
20260904132703 16 323 3.2 4.8 0.00 0.00 0.00 54 988.4
20260904131803 15 323 3.2 6.4 0.00 0.00 0.00 55 988.3
20260904130903 15 321 3.2 6.4 0.00 0.00 0.00 56 988.1
20260904130003 15 321 1.6 4.8 0.00 0.00 0.00 54 987.9
20260904125403 15 321 3.2 6.4 0.00 0.00 0.00 52 987.9
20260904124716 15 322 4.8 8.0 0.00 0.00 0.00 53 987.7
20260904123604 15 323 1.6 3.2 0.00 0.00 0.00 54 987.6
20260904122704 15 323 0.0 3.2 0.00 0.00 0.00 53 987.4
20260904121803 16 323 0.0 3.2 0.00 0.00 0.00 50 987.4
20260904120903 16 323 1.6 3.2 0.00 0.00 0.00 50 987.3
20260904120217 16 323 1.6 4.8 0.00 0.00 0.00 48 987.2
20260904115403 16 323 1.6 4.8 0.00 0.00 0.00 46 987.2
20260904114503 16 320 3.2 8.0 0.00 0.00 0.00 47 987.1
20260904113603 16 315 4.8 8.0 0.00 0.00 0.00 47 986.9
20260904112703 16 277 4.8 11.3 0.00 0.00 0.00 46 986.9
20260904111804 17 291 4.8 11.3 0.00 0.00 0.00 45 987.0
20260904110903 16 302 3.2 6.4 0.00 0.00 0.00 45 986.9
20260904110003 16 302 1.6 4.8 0.00 0.00 0.00 44 986.9
20260904105403 16 302 1.6 6.4 0.00 0.00 0.00 46 986.9
20260904104504 16 300 3.2 11.3 0.00 0.00 0.00 44 986.7
20260904103603 17 318 3.2 11.3 0.00 0.00 0.00 43 986.6
20260904102703 17 323 3.2 6.4 0.00 0.00 0.00 42 986.6
20260904101803 17 323 3.2 6.4 0.00 0.00 0.00 40 986.5
20260904100904 18 325 3.2 8.0 0.00 0.00 0.00 38 986.5
20260904100218 18 318 3.2 9.7 0.00 0.00 0.00 37 986.4
20260904095403 19 309 3.2 11.3 0.00 0.00 0.00 36 986.2
20260904094717 20 308 4.8 14.5 0.00 0.00 0.00 35 986.1
20260904093603 20 316 8.0 12.9 0.00 0.00 0.00 34 986.1
20260904092703 21 328 8.0 14.5 0.00 0.00 0.00 32 986.2
20260904091803 21 327 8.0 19.3 0.00 0.00 0.00 32 986.1
20260904091117 21 330 9.7 19.3 0.00 0.00 0.00 32 986.0
20260904090004 21 322 8.0 16.1 0.00 0.00 0.00 33 985.9
20260904085403 21 320 12.9 24.1 0.00 0.00 0.00 32 985.9
20260904084503 21 315 14.5 22.5 0.00 0.00 0.00 33 985.9
20260904083603 21 319 12.9 20.9 0.00 0.00 0.00 33 986.0
20260904082703 20 325 9.7 20.9 0.00 0.00 0.00 34 986.1
20260904081803 20 323 8.0 16.1 0.00 0.00 0.00 35 986.0
20260904080903 20 330 8.0 14.5 0.00 0.00 0.00 35 985.9
20260904080003 20 323 6.4 12.9 0.00 0.00 0.00 36 985.9
20260904075404 20 328 6.4 12.9 0.00 0.00 0.00 36 985.9
20260904074503 20 327 6.4 12.9 0.00 0.00 0.00 36 985.8
20260904073603 20 327 9.7 16.1 0.00 0.00 0.00 35 986.0
20260904072703 20 327 6.4 16.1 0.00 0.00 0.00 36 986.0
20260904071803 20 323 4.8 8.0 0.00 0.00 0.00 35 986.0
20260904070903 21 312 1.6 8.0 0.00 0.00 0.00 35 986.0
20260904070003 21 10 1.6 8.0 0.00 0.00 0.00 33 985.8
20260904065403 21 350 4.8 12.9 0.00 0.00 0.00 33 985.8
20260904064504 22 328 6.4 14.5 0.00 0.00 0.00 32 985.7
20260904063603 22 331 8.0 17.7 0.00 0.00 0.00 31 985.6
20260904062703 22 333 9.7 16.1 0.00 0.00 0.00 31 985.5
20260904061803 22 332 9.7 19.3 0.00 0.00 0.00 32 985.4
20260904061117 22 323 9.7 17.7 0.00 0.00 0.00 32 985.3
20260904060006 22 337 9.7 20.9 0.00 0.00 0.00 32 985.4
20260904055403 22 338 9.7 20.9 0.00 0.00 0.00 31 985.3
20260904054503 23 341 8.0 16.1 0.00 0.00 0.00 30 985.1
20260904053604 23 328 9.7 19.3 0.00 0.00 0.00 28 985.2
20260904052703 22 324 11.3 19.3 0.00 0.00 0.00 31 985.0
20260904051803 21 317 4.8 16.1 0.00 0.00 0.00 33 984.9
20260904050903 22 331 4.8 12.9 0.00 0.00 0.00 32 985.1
20260904050003 21 336 8.0 19.3 0.00 0.00 0.00 31 985.1
20260904045403 21 332 9.7 19.3 0.00 0.00 0.00 32 985.0
20260904044503 21 321 6.4 17.7 0.00 0.00 0.00 33 985.0
20260904043603 21 330 3.2 9.7 0.00 0.00 0.00 37 984.9